Location: Pinhead Observatory
(34.4473°N, 118.1985°W)
Time: 20:17:54
(UTC-07:00)

CZ-4C R/B - Visible Passes

Search period start: 30 March 2015 00:00
Search period end: 09 April 2015 00:00
Orbit: 774 x 1228 km, 63.4° (Epoch: 30 March)

Date Brightness Start Highest point End Pass type
(mag) Time Alt. Az. Time Alt. Az. Time Alt. Az.
01 Apr 5.0 05:54:31 10° SE 05:57:04 14° ESE 06:00:01 10° ENE visible
03 Apr 5.3 05:15:30 10° ESE 05:15:55 10° ESE 05:16:44 10° E visible
04 Apr 4.0 05:44:26 10° S 05:49:00 30° ESE 05:53:57 10° NE visible
06 Apr 4.3 05:03:43 10° SSE 05:07:49 23° ESE 05:12:17 10° ENE visible
07 Apr 2.6 05:35:48 10° SSW 05:41:02 63° ESE 05:46:47 10° NE visible
08 Apr 4.5 04:23:12 10° SSE 04:26:38 18° ESE 04:30:27 10° ENE visible
